Simultaneous Nadir Overpasses (SNOs) Predictions

Prediction of SNOs between GOES-17 and NOAA-20 Satellite Orbit:

Table of predicted SNOs for the next 14.0 days since TLE Epoch: 4/24/2021
Index Date Time (GOES-17) GOES-17 Lat,Lon NOAA-20 Lat,Lon Distance(km) Time Diff (sec)
1 04/24/2021 10:31:01 -0.02,-137.20 -0.10,-136.87 37.95 80
2 04/26/2021 22:34:13 0.02,-137.19 -0.07,-137.65 51.97 80
3 04/27/2021 22:18:09 0.03,-137.19 0.93,-133.12 463.39 80
4 04/29/2021 10:39:57 -0.02,-137.17 0.25,-138.39 138.94 80
5 04/30/2021 10:18:33 -0.02,-137.16 -0.75,-133.86 375.83 80
6 05/01/2021 22:40:30 0.02,-137.14 -0.43,-139.17 231.53 80
7 05/02/2021 22:24:26 0.02,-137.13 0.57,-134.64 283.07 80
8 05/04/2021 10:46:14 -0.01,-137.11 0.60,-139.92 320.03 80
9 05/05/2021 10:24:49 -0.01,-137.09 -0.40,-135.39 194.40 80
10 05/06/2021 22:46:46 0.01,-137.06 -0.83,-140.68 413.51 80
11 05/07/2021 22:30:42 0.01,-137.05 0.23,-136.17 100.89 80
